sat.trackr.live / text

‹ back to catalog

STARLINK-32397

NORAD 61593 · 2024-187V

PAYLOAD ACTIVE UNKNOWN

§ Identity

Operator
Country
US
Launch date
2024-10-18
Launch site
AFETR
Launch vehicle
Mass (kg)
RCS (m²)

Purposes: comms

External: N2YO · Heavens-Above · Gunter

§ Orbital elements

Epoch: 2026-05-25T04:10:40.738368Z

Period
93.85 min
Inclination
53.1613°
Eccentricity
0.0001263
Mean motion
15.34384993 rev/d
Perigee alt
461.9 km
Apogee alt
463.6 km
Semi-major
6,840.9 km
B*
2.4588e-5
RAAN
66.9356°
Arg perigee
91.4524°
Mean anomaly
268.6623°
Rev number
9,083

§ Raw data

STARLINK-323971 61593U 24187V   26145.17408262  .00000454  00000+0  24588-4 0  99972 61593  53.1613  66.9356 0001263  91.4524 268.6623 15.34384993 90839

JSON: /api/v1/satellites/61593 · /tle

For live sub-satellite position, see the globe view (requires WebGL).

§ Visibility from observer

Set your observer location to see the next 7 days of passes ≥ 10°. The values pass through the URL so the page stays shareable.

No JS? Fill the form by hand. The geolocation button needs JavaScript.